EZY17LC LGSK-EGKK

Flight info

Callsign EZY17LC
Flight time N/A
Altitude 34000
Route TSL DCT TALAS DCT MAVAR DCT RINAV DCT RETRA DCT NETKO DCT OKLAX DCT PUL/N0447F360 DCT ROTAR DCT SUMIR DCT SAFFA DCT RONAG DCT RLP DCT IRBAL DCT KUNAV
Aircraft A321/M-SDE3FGHIRWY/LB1

Departure

Time 2026-04-16 14:55
Airport Skiathos Island National Airport (LGSK)

Arrival

Time N/A
Airport London Gatwick Airport (EGKK)
Time Latitude Longitude Altitude Speed Heading
2026-04-16 14:30 39.17814 23.50187 55 ft 0 kts 331°
2026-04-16 14:48 39.17810 23.50190 54 ft 3 kts 331°
2026-04-16 14:48 39.17791 23.50204 57 ft 3 kts 331°
2026-04-16 14:48 39.17772 23.50217 52 ft 3 kts 321°
2026-04-16 14:48 39.17760 23.50235 58 ft 3 kts 271°
2026-04-16 14:49 39.17765 23.50253 52 ft 3 kts 203°
2026-04-16 14:49 39.17782 23.50260 53 ft 3 kts 198°
2026-04-16 14:49 39.17792 23.50265 56 ft 1 kts 198°
2026-04-16 14:50 39.17792 23.50264 55 ft 0 kts 198°
2026-04-16 14:51 39.17783 23.50261 53 ft 3 kts 198°
2026-04-16 14:51 39.17726 23.50248 57 ft 13 kts 187°
2026-04-16 14:51 39.17636 23.50227 54 ft 14 kts 193°
2026-04-16 14:53 39.17028 23.50054 19 ft 2 kts 353°
2026-04-16 14:53 39.17038 23.50061 19 ft 0 kts 23°
2026-04-16 14:54 39.17039 23.50061 19 ft 5 kts 23°
2026-04-16 14:54 39.17373 23.50216 43 ft 92 kts 19°
2026-04-16 14:54 39.18196 23.50580 156 ft 148 kts 18°
2026-04-16 14:55 39.18813 23.50846 818 ft 136 kts 18°
2026-04-16 14:55 39.19694 23.51211 1764 ft 132 kts 19°
2026-04-16 14:55 39.20637 23.51582 2325 ft 153 kts 19°
2026-04-16 14:55 39.21757 23.51757 2619 ft 177 kts 355°
2026-04-16 14:56 39.23018 23.51277 2753 ft 199 kts 348°
2026-04-16 14:56 39.24385 23.50708 2886 ft 215 kts 348°
2026-04-16 14:56 39.25905 23.50076 3217 ft 243 kts 347°
2026-04-16 14:56 39.27569 23.49382 3688 ft 257 kts 346°
2026-04-16 14:57 39.29293 23.48656 4345 ft 264 kts 346°
2026-04-16 14:57 39.31058 23.47909 5012 ft 270 kts 346°
2026-04-16 14:57 39.32858 23.47145 5688 ft 275 kts 345°
2026-04-16 14:57 39.34691 23.46370 6359 ft 280 kts 344°
2026-04-16 14:58 39.36557 23.45586 7005 ft 284 kts 343°
2026-04-16 14:58 39.40360 23.43991 8370 ft 290 kts 343°
2026-04-16 14:58 39.42291 23.43180 9066 ft 293 kts 342°
2026-04-16 14:59 39.44244 23.42360 9720 ft 298 kts 341°
2026-04-16 14:59 39.46233 23.41526 10280 ft 305 kts 341°
2026-04-16 14:59 39.48329 23.40645 10415 ft 327 kts 341°
2026-04-16 14:59 39.50564 23.39704 10544 ft 348 kts 341°
2026-04-16 15:00 39.52909 23.38716 10924 ft 359 kts 341°
2026-04-16 15:00 39.55285 23.37711 11516 ft 362 kts 341°
2026-04-16 15:00 39.57699 23.36692 12181 ft 365 kts 342°
2026-04-16 15:00 39.60117 23.35672 12819 ft 367 kts 342°
2026-04-16 15:01 39.62558 23.34643 13464 ft 370 kts 342°
2026-04-16 15:01 39.65012 23.33605 14081 ft 372 kts 342°
2026-04-16 15:01 39.67486 23.32559 14629 ft 376 kts 342°
2026-04-16 15:01 39.69983 23.31505 15171 ft 379 kts 342°
2026-04-16 15:02 39.72499 23.30442 15704 ft 382 kts 342°
2026-04-16 15:02 39.75036 23.29371 16231 ft 385 kts 342°
2026-04-16 15:02 39.77596 23.28289 16753 ft 388 kts 342°
2026-04-16 15:02 39.80174 23.27197 17285 ft 390 kts 342°
2026-04-16 15:03 39.82759 23.26098 17850 ft 392 kts 341°
2026-04-16 15:03 39.85361 23.24987 18359 ft 395 kts 341°
2026-04-16 15:03 39.87980 23.23869 18794 ft 397 kts 341°
2026-04-16 15:03 39.90618 23.22746 19222 ft 400 kts 342°
2026-04-16 15:04 39.93271 23.21616 19638 ft 403 kts 342°
2026-04-16 15:04 39.95943 23.20479 20059 ft 405 kts 342°
2026-04-16 15:04 39.98631 23.19335 20475 ft 408 kts 342°
2026-04-16 15:04 40.01337 23.18182 20895 ft 410 kts 342°
2026-04-16 15:05 40.04056 23.17023 21315 ft 413 kts 342°
2026-04-16 15:05 40.06795 23.15853 21720 ft 415 kts 342°
2026-04-16 15:05 40.09547 23.14673 22125 ft 418 kts 342°
2026-04-16 15:05 40.12321 23.13480 22514 ft 421 kts 342°
2026-04-16 15:06 40.15111 23.12281 22899 ft 423 kts 342°
2026-04-16 15:06 40.17880 23.11093 23279 ft 426 kts 342°
2026-04-16 15:06 40.20705 23.09881 23656 ft 429 kts 342°
2026-04-16 15:06 40.23547 23.08659 23983 ft 431 kts 342°
2026-04-16 15:07 40.26398 23.07431 24357 ft 432 kts 342°
2026-04-16 15:07 40.29257 23.06200 24712 ft 433 kts 342°
2026-04-16 15:07 40.32123 23.04968 25044 ft 435 kts 342°
2026-04-16 15:07 40.35004 23.03728 25359 ft 437 kts 342°
2026-04-16 15:08 40.37895 23.02477 25674 ft 439 kts 342°
2026-04-16 15:08 40.40797 23.01209 25974 ft 441 kts 341°
2026-04-16 15:08 40.43592 22.99547 26280 ft 443 kts 330°
2026-04-16 15:08 40.46147 22.97269 26579 ft 446 kts 321°
2026-04-16 15:09 40.48384 22.94442 26877 ft 448 kts 311°
2026-04-16 15:09 40.50312 22.91218 27173 ft 450 kts 307°
2026-04-16 15:09 40.52217 22.87945 27471 ft 452 kts 307°
2026-04-16 15:09 40.54133 22.84663 27762 ft 453 kts 307°
2026-04-16 15:10 40.56059 22.81370 28048 ft 455 kts 307°
2026-04-16 15:10 40.57992 22.78064 28326 ft 457 kts 307°
2026-04-16 15:10 40.59933 22.74743 28576 ft 459 kts 307°
2026-04-16 15:10 40.61881 22.71401 28841 ft 461 kts 307°
2026-04-16 15:11 40.63834 22.68044 29107 ft 463 kts 307°
2026-04-16 15:11 40.65792 22.64673 29386 ft 464 kts 307°
2026-04-16 15:11 40.67757 22.61284 29658 ft 466 kts 307°
2026-04-16 15:11 40.69727 22.57883 29939 ft 467 kts 306°
2026-04-16 15:12 40.71697 22.54484 30297 ft 466 kts 306°
2026-04-16 15:12 40.73663 22.51090 30608 ft 465 kts 306°
2026-04-16 15:12 40.75622 22.47697 30924 ft 465 kts 306°
2026-04-16 15:12 40.77576 22.44304 31255 ft 464 kts 306°
2026-04-16 15:13 40.79526 22.40914 31588 ft 463 kts 306°
2026-04-16 15:13 40.81468 22.37537 31938 ft 462 kts 306°
2026-04-16 15:13 40.83384 22.34208 32265 ft 461 kts 306°
2026-04-16 15:13 40.85347 22.30796 32602 ft 460 kts 306°
2026-04-16 15:14 40.87257 22.27474 32916 ft 460 kts 305°
2026-04-16 15:14 40.89186 22.24110 33255 ft 459 kts 305°
2026-04-16 15:14 40.91113 22.20743 33570 ft 459 kts 305°
2026-04-16 15:14 40.93037 22.17381 33897 ft 458 kts 305°
2026-04-16 15:15 40.94961 22.14016 34073 ft 458 kts 305°
2026-04-16 15:15 40.98763 22.07352 34097 ft 452 kts 304°
2026-04-16 15:16 41.02543 22.00721 34097 ft 451 kts 304°
2026-04-16 15:16 41.06306 21.94084 34102 ft 451 kts 304°
2026-04-16 15:17 41.09663 21.87120 34100 ft 448 kts 297°
2026-04-16 15:17 41.12780 21.79974 34128 ft 447 kts 297°
2026-04-16 15:18 41.15890 21.72840 34115 ft 446 kts 297°
2026-04-16 15:18 41.18987 21.65710 34115 ft 446 kts 297°
2026-04-16 15:19 41.22078 21.58581 34106 ft 445 kts 297°
2026-04-16 15:19 41.25164 21.51453 34114 ft 445 kts 297°
2026-04-16 15:20 41.28242 21.44320 34105 ft 445 kts 297°
2026-04-16 15:20 41.31317 21.37185 34104 ft 445 kts 297°
2026-04-16 15:21 41.34385 21.30038 34102 ft 445 kts 297°
2026-04-16 15:21 41.37449 21.22890 34096 ft 445 kts 297°
2026-04-16 15:22 41.40505 21.15734 34106 ft 445 kts 297°
2026-04-16 15:22 41.43561 21.08568 34095 ft 445 kts 297°
2026-04-16 15:23 41.46615 21.01396 34096 ft 445 kts 297°
2026-04-16 15:23 41.49662 20.94214 34097 ft 445 kts 297°
2026-04-16 15:24 41.52705 20.87030 34104 ft 445 kts 297°
2026-04-16 15:24 41.55737 20.79841 34120 ft 444 kts 297°
2026-04-16 15:25 41.58767 20.72648 34087 ft 444 kts 296°
2026-04-16 15:25 41.61774 20.65495 34089 ft 445 kts 296°
2026-04-16 15:26 41.64792 20.58280 34079 ft 444 kts 296°
2026-04-16 15:26 41.67816 20.51071 34074 ft 444 kts 297°
2026-04-16 15:27 41.70877 20.43886 34064 ft 445 kts 297°
2026-04-16 15:27 41.73952 20.36704 34067 ft 444 kts 297°
2026-04-16 15:28 41.77023 20.29523 34059 ft 444 kts 298°
2026-04-16 15:28 41.80085 20.22336 34056 ft 444 kts 297°
2026-04-16 15:29 41.83123 20.15139 34045 ft 443 kts 297°
2026-04-16 15:29 41.86146 20.07953 34062 ft 441 kts 297°
2026-04-16 15:30 41.89158 20.00794 34048 ft 440 kts 297°
2026-04-16 15:30 41.92161 19.93648 34048 ft 439 kts 297°
2026-04-16 15:31 41.95158 19.86504 34051 ft 439 kts 297°
2026-04-16 15:31 41.98153 19.79365 34041 ft 438 kts 301°
2026-04-16 15:32 42.01697 19.72703 34036 ft 438 kts 305°